TimeEEST,TemperatureF,Dew PointF,Humidity,Sea Level PressureIn,VisibilityMPH,Wind Direction,Wind SpeedMPH,Gust SpeedMPH,PrecipitationIn,Events,Conditions,WindDirDegrees,DateUTC
12:20 AM,64.4,59.0,83,30.09,-9999.0,North,9.2,-,N/A,,Clear,350,2013-05-05 21:20:00
12:50 AM,64.4,59.0,83,30.09,-9999.0,North,10.4,-,N/A,,Clear,350,2013-05-05 21:50:00
1:20 AM,64.4,59.0,83,30.09,-9999.0,North,17.3,-,N/A,,Clear,360,2013-05-05 22:20:00
1:50 AM,62.6,59.0,88,30.09,-9999.0,North,15.0,-,N/A,,Clear,360,2013-05-05 22:50:00
2:20 AM,62.6,60.8,94,30.09,-9999.0,North,13.8,-,N/A,,Clear,360,2013-05-05 23:20:00
2:50 AM,62.6,60.8,94,30.09,-9999.0,North,11.5,-,N/A,,Clear,10,2013-05-05 23:50:00
3:00 AM,63,61,91,30.11,6,North,11.5,,,,,10,2013-05-06 00:00:00
3:20 AM,62.6,60.8,94,30.09,5.0,NNE,8.1,-,N/A,,Partly Cloudy,20,2013-05-06 00:20:00
3:50 AM,62.6,59.0,88,30.09,6.2,North,9.2,-,N/A,,Partly Cloudy,10,2013-05-06 00:50:00
4:20 AM,62.6,57.2,82,30.09,6.2,NNE,6.9,-,N/A,,Partly Cloudy,30,2013-05-06 01:20:00
4:50 AM,62.6,57.2,82,30.09,6.2,NNE,8.1,-,N/A,,Partly Cloudy,20,2013-05-06 01:50:00
5:20 AM,60.8,57.2,88,30.09,6.2,NNE,9.2,-,N/A,,Scattered Clouds,20,2013-05-06 02:20:00
5:50 AM,60.8,55.4,82,30.09,6.2,NNE,9.2,-,N/A,,Scattered Clouds,20,2013-05-06 02:50:00
6:20 AM,60.8,55.4,82,30.12,4.3,North,11.5,-,N/A,,Scattered Clouds,360,2013-05-06 03:20:00
6:50 AM,60.8,57.2,88,30.12,5.0,NNE,11.5,-,N/A,,Scattered Clouds,20,2013-05-06 03:50:00
7:20 AM,62.6,59.0,88,30.12,5.0,NNE,11.5,-,N/A,,Scattered Clouds,20,2013-05-06 04:20:00
7:50 AM,62.6,59.0,88,30.12,5.0,North,12.7,-,N/A,,Mostly Cloudy,10,2013-05-06 04:50:00
8:20 AM,64.4,57.2,77,30.15,6.2,Variable,10.4,-,N/A,,Mostly Cloudy,0,2013-05-06 05:20:00
8:50 AM,66.2,57.2,73,30.15,6.2,Variable,8.1,-,N/A,,Mostly Cloudy,0,2013-05-06 05:50:00
9:00 AM,65,58,73,30.16,6,NNE,8.1,,,,Mostly Cloudy,20,2013-05-06 06:00:00
9:20 AM,66.2,57.2,73,30.15,6.2,NNE,9.2,-,N/A,,Mostly Cloudy,20,2013-05-06 06:20:00
9:50 AM,66.2,57.2,73,30.15,6.2,NNE,9.2,-,N/A,,Mostly Cloudy,20,2013-05-06 06:50:00
10:20 AM,68.0,59.0,73,30.15,6.2,North,9.2,-,N/A,,Mostly Cloudy,10,2013-05-06 07:20:00
10:50 AM,69.8,57.2,64,30.15,6.2,North,8.1,-,N/A,,Scattered Clouds,10,2013-05-06 07:50:00
11:20 AM,71.6,57.2,60,30.15,6.2,NNE,6.9,-,N/A,,Partly Cloudy,20,2013-05-06 08:20:00
11:50 AM,73.4,57.2,57,30.15,6.2,North,10.4,-,N/A,,Partly Cloudy,10,2013-05-06 08:50:00
12:20 PM,75.2,55.4,50,30.15,6.2,NNE,13.8,-,N/A,,Partly Cloudy,20,2013-05-06 09:20:00
12:50 PM,75.2,55.4,50,30.15,6.2,NNE,15.0,-,N/A,,Partly Cloudy,20,2013-05-06 09:50:00
1:20 PM,75.2,55.4,50,30.12,-9999.0,NNE,15.0,-,N/A,,Clear,20,2013-05-06 10:20:00
1:50 PM,75.2,55.4,50,30.12,-9999.0,NNE,17.3,-,N/A,,Clear,20,2013-05-06 10:50:00
2:20 PM,77.0,53.6,44,30.12,-9999.0,NNE,17.3,-,N/A,,Clear,20,2013-05-06 11:20:00
2:50 PM,75.2,53.6,47,30.12,-9999.0,NNE,20.7,32.2,N/A,,Clear,30,2013-05-06 11:50:00
3:00 PM,75,53,36,30.14,6,NNE,20.7,,,,,30,2013-05-06 12:00:00
3:20 PM,77.0,53.6,44,30.12,-9999.0,NNE,15.0,-,N/A,,Clear,30,2013-05-06 12:20:00
3:50 PM,75.2,53.6,47,30.12,-9999.0,NNE,16.1,-,N/A,,Clear,20,2013-05-06 12:50:00
4:20 PM,73.4,55.4,53,30.09,-9999.0,North,18.4,-,N/A,,Clear,10,2013-05-06 13:20:00
4:50 PM,73.4,53.6,50,30.09,-9999.0,North,19.6,-,N/A,,Clear,10,2013-05-06 13:50:00
5:20 PM,71.6,55.4,57,30.12,-9999.0,North,17.3,-,N/A,,Clear,10,2013-05-06 14:20:00
5:50 PM,69.8,53.6,56,30.09,-9999.0,NNE,19.6,-,N/A,,Clear,30,2013-05-06 14:50:00
6:20 PM,69.8,53.6,56,30.09,-9999.0,North,17.3,-,N/A,,Clear,10,2013-05-06 15:20:00
6:50 PM,68.0,53.6,60,30.09,-9999.0,NNE,18.4,-,N/A,,Clear,20,2013-05-06 15:50:00
7:20 PM,68.0,53.6,60,30.09,-9999.0,NNE,15.0,-,N/A,,Clear,20,2013-05-06 16:20:00
7:50 PM,68.0,53.6,60,30.09,-9999.0,NNE,10.4,-,N/A,,Clear,30,2013-05-06 16:50:00
8:20 PM,66.2,53.6,64,30.09,-9999.0,Variable,11.5,-,N/A,,Clear,0,2013-05-06 17:20:00
8:50 PM,66.2,55.4,68,30.12,-9999.0,NNE,11.5,-,N/A,,Clear,30,2013-05-06 17:50:00
9:00 PM,65,54,59,30.12,6,NNE,11.5,,,,,30,2013-05-06 18:00:00
9:20 PM,64.4,55.4,73,30.12,-9999.0,NNE,9.2,-,N/A,,Clear,20,2013-05-06 18:20:00
9:50 PM,62.6,55.4,77,30.12,6.2,NNE,10.4,-,N/A,,Partly Cloudy,20,2013-05-06 18:50:00
10:20 PM,62.6,55.4,77,30.12,6.2,NNE,11.5,-,N/A,,Partly Cloudy,20,2013-05-06 19:20:00
10:50 PM,62.6,55.4,77,30.12,6.2,NE,9.2,-,N/A,,Partly Cloudy,40,2013-05-06 19:50:00
11:20 PM,62.6,55.4,77,30.12,6.2,NNE,11.5,-,N/A,,Scattered Clouds,30,2013-05-06 20:20:00
11:50 PM,62.6,55.4,77,30.12,6.2,North,10.4,-,N/A,,Scattered Clouds,10,2013-05-06 20:50:00